Time,TemperatureF,DewpointF,PressureIn,WindDirection,WindDirectionDegrees,WindSpeedMPH,WindSpeedGustMPH,Humidity,HourlyPrecipIn,Conditions,Clouds,dailyrainin,SolarRadiationWatts/m^2,SoftwareType,DateUTC
2013-11-28 00:03:00,34.0,14.0,-100.00,SE,142,5.0,7.0,44,0.00,,,0.00,0.000000,,2013-11-28 06:03:00,
2013-11-28 00:42:00,34.0,14.0,-100.00,SSE,166,3.0,8.0,44,0.00,,,0.00,0.000000,,2013-11-28 06:42:00,
2013-11-28 00:52:00,34.0,14.0,-100.00,SSE,166,3.0,8.0,44,0.00,,,0.00,0.000000,,2013-11-28 06:52:00,
2013-11-28 01:01:00,34.0,14.0,-100.00,SSE,166,3.0,8.0,44,0.00,,,0.00,0.000000,,2013-11-28 07:01:00,
2013-11-28 01:42:00,33.0,17.0,-100.00,SSE,167,4.0,10.0,51,0.00,,,0.00,0.000000,,2013-11-28 07:42:00,
2013-11-28 01:52:00,33.0,17.0,-100.00,SSE,167,4.0,10.0,51,0.00,,,0.00,0.000000,,2013-11-28 07:52:00,
2013-11-28 02:02:00,33.0,17.0,-100.00,SSE,167,4.0,10.0,51,0.00,,,0.00,0.000000,,2013-11-28 08:02:00,
2013-11-28 02:42:00,33.0,18.0,-100.00,SSW,206,3.0,9.0,54,0.00,,,0.00,0.000000,,2013-11-28 08:42:00,
2013-11-28 02:53:00,33.0,18.0,-100.00,SSW,206,3.0,9.0,54,0.00,,,0.00,0.000000,,2013-11-28 08:53:00,
2013-11-28 03:02:00,33.0,18.0,-100.00,SSW,206,3.0,9.0,54,0.00,,,0.00,0.000000,,2013-11-28 09:02:00,
2013-11-28 03:43:00,32.0,16.0,-100.00,South,183,4.0,6.0,52,0.00,,,0.00,0.000000,,2013-11-28 09:43:00,
2013-11-28 03:53:00,32.0,16.0,-100.00,South,183,4.0,6.0,52,0.00,,,0.00,0.000000,,2013-11-28 09:53:00,
2013-11-28 04:02:00,32.0,16.0,-100.00,South,183,4.0,6.0,52,0.00,,,0.00,0.000000,,2013-11-28 10:02:00,
2013-11-28 04:43:00,32.0,18.0,-100.00,South,174,4.0,7.0,56,0.00,,,0.00,0.000000,,2013-11-28 10:43:00,
2013-11-28 04:53:00,32.0,18.0,-100.00,South,174,4.0,7.0,56,0.00,,,0.00,0.000000,,2013-11-28 10:53:00,
2013-11-28 05:02:00,32.0,18.0,-100.00,South,174,4.0,7.0,56,0.00,,,0.00,0.000000,,2013-11-28 11:02:00,
2013-11-28 06:42:00,30.0,19.0,-100.00,SSW,197,3.0,5.0,63,-99.99,,,0.00,0.000000,,2013-11-28 12:42:00,
2013-11-28 06:52:00,30.0,19.0,-100.00,SSW,197,3.0,5.0,63,-99.99,,,0.00,0.000000,,2013-11-28 12:52:00,
2013-11-28 07:01:00,30.0,19.0,-100.00,SSW,197,3.0,5.0,63,-99.99,,,0.00,0.000000,,2013-11-28 13:01:00,
2013-11-28 07:42:00,34.0,21.0,-100.00,South,177,4.0,8.0,58,0.00,,,0.00,1.000000,,2013-11-28 13:42:00,
2013-11-28 07:52:00,34.0,21.0,-100.00,South,177,4.0,8.0,58,0.00,,,0.00,1.000000,,2013-11-28 13:52:00,
2013-11-28 08:02:00,34.0,21.0,-100.00,South,177,4.0,8.0,58,0.00,,,0.00,1.000000,,2013-11-28 14:02:00,
2013-11-28 08:42:00,36.0,21.0,-100.00,South,182,5.0,7.0,55,0.00,,,0.00,33.000000,,2013-11-28 14:42:00,
2013-11-28 08:52:00,36.0,21.0,-100.00,South,182,5.0,7.0,55,0.00,,,0.00,33.000000,,2013-11-28 14:52:00,
2013-11-28 09:02:00,36.0,21.0,-100.00,South,182,5.0,7.0,55,0.00,,,0.00,33.000000,,2013-11-28 15:02:00,
2013-11-28 09:44:00,40.0,23.0,-100.00,SSW,200,6.0,12.0,51,0.00,,,0.00,159.000000,,2013-11-28 15:44:00,
2013-11-28 09:54:00,40.0,23.0,-100.00,SSW,200,6.0,12.0,51,0.00,,,0.00,159.000000,,2013-11-28 15:54:00,
2013-11-28 10:03:00,40.0,23.0,-100.00,SSW,200,6.0,12.0,51,0.00,,,0.00,159.000000,,2013-11-28 16:03:00,
2013-11-28 10:43:00,46.0,24.0,-100.00,SSW,192,8.0,12.0,42,0.00,,,0.00,486.000000,,2013-11-28 16:43:00,
2013-11-28 10:54:00,46.0,24.0,-100.00,SSW,192,8.0,12.0,42,0.00,,,0.00,486.000000,,2013-11-28 16:54:00,
2013-11-28 11:02:00,46.0,24.0,-100.00,SSW,192,8.0,12.0,42,0.00,,,0.00,486.000000,,2013-11-28 17:02:00,
2013-11-28 11:42:00,46.0,25.0,-100.00,SSW,199,7.0,15.0,43,0.00,,,0.00,450.000000,,2013-11-28 17:42:00,
2013-11-28 11:52:00,46.0,25.0,-100.00,SSW,199,7.0,15.0,43,0.00,,,0.00,450.000000,,2013-11-28 17:52:00,
2013-11-28 12:02:00,46.0,25.0,-100.00,SSW,199,7.0,15.0,43,0.00,,,0.00,450.000000,,2013-11-28 18:02:00,
2013-11-28 12:42:00,49.0,24.0,-100.00,South,189,9.0,14.0,37,0.00,,,0.00,591.000000,,2013-11-28 18:42:00,
2013-11-28 12:52:00,49.0,24.0,-100.00,South,189,9.0,14.0,37,0.00,,,0.00,591.000000,,2013-11-28 18:52:00,
2013-11-28 13:02:00,49.0,24.0,-100.00,South,189,9.0,14.0,37,0.00,,,0.00,591.000000,,2013-11-28 19:02:00,
2013-11-28 13:42:00,50.0,23.0,-100.00,SSW,209,6.0,15.0,35,0.00,,,0.00,522.000000,,2013-11-28 19:42:00,
2013-11-28 13:52:00,50.0,23.0,-100.00,SSW,209,6.0,15.0,35,0.00,,,0.00,522.000000,,2013-11-28 19:52:00,
2013-11-28 14:01:00,50.0,23.0,-100.00,SSW,209,6.0,15.0,35,0.00,,,0.00,522.000000,,2013-11-28 20:01:00,
2013-11-28 14:42:00,54.0,25.0,-100.00,SSW,213,6.0,10.0,32,0.00,,,0.00,504.000000,,2013-11-28 20:42:00,
2013-11-28 14:52:00,54.0,25.0,-100.00,SSW,213,6.0,10.0,32,0.00,,,0.00,504.000000,,2013-11-28 20:52:00,
2013-11-28 15:02:00,54.0,25.0,-100.00,SSW,213,6.0,10.0,32,0.00,,,0.00,504.000000,,2013-11-28 21:02:00,
2013-11-28 15:43:00,55.0,23.0,-100.00,South,177,5.0,11.0,29,0.00,,,-99.99,549.000000,,2013-11-28 21:43:00,
2013-11-28 15:53:00,55.0,23.0,-100.00,South,177,5.0,11.0,29,0.00,,,-99.99,549.000000,,2013-11-28 21:53:00,
2013-11-28 16:03:00,55.0,23.0,-100.00,South,177,5.0,11.0,29,0.00,,,-99.99,549.000000,,2013-11-28 22:03:00,
2013-11-28 16:42:00,54.0,23.0,-100.00,SE,141,6.0,10.0,30,0.00,,,0.00,366.000000,,2013-11-28 22:42:00,
2013-11-28 16:53:00,54.0,23.0,-100.00,SE,141,6.0,10.0,30,0.00,,,0.00,366.000000,,2013-11-28 22:53:00,
2013-11-28 17:02:00,54.0,23.0,-100.00,SE,141,6.0,10.0,30,0.00,,,0.00,366.000000,,2013-11-28 23:02:00,
2013-11-28 17:42:00,49.0,24.0,-100.00,SE,144,4.0,10.0,37,0.00,,,0.00,151.000000,,2013-11-28 23:42:00,
2013-11-28 17:52:00,49.0,24.0,-100.00,SE,144,4.0,10.0,37,0.00,,,0.00,151.000000,,2013-11-28 23:52:00,
2013-11-28 18:02:00,49.0,24.0,-100.00,SE,144,4.0,10.0,37,0.00,,,0.00,151.000000,,2013-11-29 00:02:00,
2013-11-28 18:42:00,43.0,26.0,-100.00,SE,139,4.0,6.0,50,0.00,,,0.00,5.000000,,2013-11-29 00:42:00,
2013-11-28 18:52:00,43.0,26.0,-100.00,SE,139,4.0,6.0,50,0.00,,,0.00,5.000000,,2013-11-29 00:52:00,
2013-11-28 19:01:00,43.0,26.0,-100.00,SE,139,4.0,6.0,50,0.00,,,0.00,5.000000,,2013-11-29 01:01:00,
2013-11-28 19:42:00,41.0,26.0,-100.00,SE,132,4.0,6.0,54,0.00,,,0.00,0.000000,,2013-11-29 01:42:00,
2013-11-28 19:52:00,41.0,26.0,-100.00,SE,132,4.0,6.0,54,0.00,,,0.00,0.000000,,2013-11-29 01:52:00,
2013-11-28 20:02:00,41.0,26.0,-100.00,SE,132,4.0,6.0,54,0.00,,,0.00,0.000000,,2013-11-29 02:02:00,
2013-11-28 20:42:00,40.0,25.0,-100.00,SE,142,5.0,8.0,55,0.00,,,0.00,0.000000,,2013-11-29 02:42:00,
2013-11-28 20:52:00,40.0,25.0,-100.00,SE,142,5.0,8.0,55,0.00,,,0.00,0.000000,,2013-11-29 02:52:00,
2013-11-28 21:01:00,40.0,25.0,-100.00,SE,142,5.0,8.0,55,0.00,,,0.00,0.000000,,2013-11-29 03:01:00,
2013-11-28 21:43:00,40.0,26.0,-100.00,SE,140,5.0,7.0,58,0.00,,,0.00,0.000000,,2013-11-29 03:43:00,
2013-11-28 21:54:00,40.0,26.0,-100.00,SE,140,5.0,7.0,58,0.00,,,0.00,0.000000,,2013-11-29 03:54:00,
2013-11-28 22:03:00,40.0,26.0,-100.00,SE,140,5.0,7.0,58,0.00,,,0.00,0.000000,,2013-11-29 04:03:00,
2013-11-28 22:43:00,40.0,26.0,-100.00,SE,137,5.0,7.0,56,0.00,,,0.00,0.000000,,2013-11-29 04:43:00,
2013-11-28 22:52:00,40.0,26.0,-100.00,SE,137,5.0,7.0,56,0.00,,,0.00,0.000000,,2013-11-29 04:52:00,
2013-11-28 23:02:00,40.0,26.0,-100.00,SE,137,5.0,7.0,56,0.00,,,0.00,0.000000,,2013-11-29 05:02:00,
2013-11-28 23:43:00,37.0,24.0,-100.00,SE,133,4.0,7.0,60,0.00,,,0.00,0.000000,,2013-11-29 05:43:00,
2013-11-28 23:53:00,37.0,24.0,-100.00,SE,133,4.0,7.0,60,0.00,,,0.00,0.000000,,2013-11-29 05:53:00,